DW9493 Weather Reports


Display with metric or nautical units.
time (UTC)temp
F
wind
direction
speed
MPH
gust
MPH
rain 1hr
in
rain 24hr
in
rain mn
in
humidity
%
barometer
mb
20260904110739 52 256 0.0 4.0 0.00 0.00 0.00 55 1023.5
20260904105737 52 198 1.0 5.0 0.00 0.00 0.00 50 1023.5
20260904105217 52 232 0.0 2.0 0.00 0.00 0.00 54 1023.2
20260904103728 52 242 0.0 1.0 0.00 0.00 0.00 51 1023.2
20260904102726 53 317 0.0 3.0 0.00 0.00 0.00 55 1023.1
20260904102207 53 197 0.0 2.0 0.00 0.00 0.00 50 1023.0
20260904101213 55 319 0.0 1.0 0.00 0.00 0.00 51 1023.1
20260904095724 56 205 0.0 5.0 0.00 0.00 0.00 47 1023.1
20260904094722 57 198 0.0 2.0 0.00 0.00 0.00 45 1023.0
20260904093722 57 201 1.0 4.0 0.00 0.00 0.00 45 1023.0
20260904093156 57 243 1.0 6.0 0.00 0.00 0.00 47 1022.9
20260904091721 57 287 5.0 9.0 0.00 0.00 0.00 45 1022.7
20260904090722 57 313 5.0 10.0 0.00 0.00 0.00 48 1022.7
20260904085708 56 328 0.0 3.0 0.00 0.00 0.00 50 1022.7
20260904084648 54 298 0.0 1.0 0.00 0.00 0.00 54 1022.7
20260904083645 54 271 0.0 1.0 0.00 0.00 0.00 56 1022.7
20260904082643 54 287 0.0 1.0 0.00 0.00 0.00 57 1022.7
20260904082614 54 208 0.0 1.0 0.00 0.00 0.00 55 1022.7
20260904080640 55 310 0.0 2.0 0.00 0.00 0.00 56 1022.9
20260904075640 54 257 0.0 0.0 0.00 0.00 0.00 56 1022.9
20260904074640 54 257 0.0 1.0 0.00 0.00 0.00 57 1023.0
20260904073640 56 257 0.0 1.0 0.00 0.00 0.00 55 1023.0
20260904072632 55 272 0.0 1.0 0.00 0.00 0.00 54 1023.0
20260904071626 54 322 0.0 1.0 0.00 0.00 0.00 58 1023.0
20260904070623 54 304 0.0 1.0 0.00 0.00 0.00 58 1023.1
20260904065621 55 319 0.0 3.0 0.00 0.00 0.00 57 1023.2
20260904064618 55 255 0.0 1.0 0.00 0.00 0.00 56 1023.4
20260904063617 55 253 0.0 1.0 0.00 0.00 0.00 53 1023.4
20260904062616 56 254 0.0 1.0 0.00 0.00 0.00 52 1023.4
20260904061616 56 321 0.0 1.0 0.00 0.00 0.00 56 1023.4
20260904060604 56 321 0.0 1.0 0.00 0.00 0.00 54 1023.5
20260904055601 57 248 0.0 1.0 0.00 0.00 0.00 51 1023.5
20260904054600 58 322 0.0 1.0 0.00 0.00 0.00 51 1023.5
20260904053600 59 109 0.0 1.0 0.00 0.00 0.00 46 1023.4
20260904052600 59 321 0.0 2.0 0.00 0.00 0.00 48 1023.2
20260904052042 61 315 0.0 1.0 0.00 0.00 0.00 45 1023.1
20260904050543 62 315 0.0 1.0 0.00 0.00 0.00 42 1023.1
20260904045539 64 315 0.0 2.0 0.00 0.00 0.00 41 1023.1
20260904044539 66 260 0.0 2.0 0.00 0.00 0.00 36 1023.2
20260904043539 67 282 1.0 5.0 0.00 0.00 0.00 35 1023.2
20260904042533 67 258 2.0 4.0 0.00 0.00 0.00 34 1023.4
20260904041532 67 252 2.0 4.0 0.00 0.00 0.00 34 1023.4
20260904040515 67 240 2.0 4.0 0.00 0.00 0.00 34 1023.4
20260904035511 67 250 1.0 3.0 0.00 0.00 0.00 34 1023.4
20260904034511 67 256 1.0 3.0 0.00 0.00 0.00 35 1023.4
20260904033512 66 252 2.0 4.0 0.00 0.00 0.00 35 1023.4
20260904032511 67 305 1.0 2.0 0.00 0.00 0.00 37 1023.2
20260904031509 65 271 0.0 2.0 0.00 0.00 0.00 38 1023.2
20260904030507 65 266 0.0 3.0 0.00 0.00 0.00 39 1023.2
20260904030441 66 291 0.0 1.0 0.00 0.00 0.00 38 1023.2
20260904024504 67 249 0.0 2.0 0.00 0.00 0.00 36 1023.1
20260904023500 67 319 0.0 1.0 0.00 0.00 0.00 38 1022.9
20260904022501 67 300 1.0 4.0 0.00 0.00 0.00 36 1022.9
20260904021458 68 255 0.0 3.0 0.00 0.00 0.00 35 1022.6
20260904020458 68 290 0.0 3.0 0.00 0.00 0.00 35 1022.5
20260904015457 70 319 1.0 4.0 0.00 0.00 0.00 34 1022.5
20260904014456 70 250 0.0 3.0 0.00 0.00 0.00 31 1022.4
20260904013453 71 273 0.0 2.0 0.00 0.00 0.00 32 1022.4
20260904012452 72 320 1.0 8.0 0.00 0.00 0.00 30 1022.4
20260904011444 73 271 2.0 8.0 0.00 0.00 0.00 29 1022.4
20260904010443 74 329 2.0 9.0 0.00 0.00 0.00 27 1022.2
20260904005442 75 316 4.0 10.0 0.00 0.00 0.00 27 1022.2
20260904004419 75 312 4.0 11.0 0.00 0.00 0.00 27 1022.2
20260904003416 76 248 2.0 9.0 0.00 0.00 0.00 26 1022.2
20260904002904 76 319 4.0 9.0 0.00 0.00 0.00 25 1022.2
20260904001418 77 322 1.0 9.0 0.00 0.00 0.00 24 1022.1
20260904000415 77 325 1.0 4.0 0.00 0.00 0.00 24 1022.0
20260903235412 77 16 2.0 9.0 0.00 0.00 0.00 25 1021.8
20260903234412 78 323 2.0 8.0 0.00 0.00 0.00 24 1022.0
20260903233412 78 39 3.0 10.0 0.00 0.00 0.00 23 1022.0
20260903232414 78 54 3.0 10.0 0.00 0.00 0.00 24 1022.0
20260903232333 78 357 4.0 11.0 0.00 0.00 0.00 24 1022.0
20260903230841 78 33 3.0 13.0 0.00 0.00 0.00 25 1022.0
20260903225405 78 56 3.0 11.0 0.00 0.00 0.00 23 1022.0
20260903224405 79 359 2.0 8.0 0.00 0.00 0.00 24 1021.8
20260903223406 78 353 5.0 14.0 0.00 0.00 0.00 25 1022.0
20260903222349 79 322 2.0 8.0 0.00 0.00 0.00 25 1021.8
20260903221349 79 317 2.0 8.0 0.00 0.00 0.00 24 1022.0
20260903220349 79 107 3.0 9.0 0.00 0.00 0.00 24 1022.0
20260903215348 79 82 2.0 9.0 0.00 0.00 0.00 25 1022.1
20260903214347 79 16 3.0 9.0 0.00 0.00 0.00 23 1022.2
20260903213347 80 35 3.0 14.0 0.00 0.00 0.00 24 1022.2
20260903212347 78 79 5.0 10.0 0.00 0.00 0.00 26 1022.2
20260903211347 79 346 4.0 19.0 0.00 0.00 0.00 25 1022.4
20260903210825 79 335 5.0 17.0 0.00 0.00 0.00 25 1022.2
20260903205316 79 20 4.0 11.0 0.00 0.00 0.00 25 1022.4
20260903204301 78 82 3.0 11.0 0.00 0.00 0.00 26 1022.6
20260903203258 78 142 4.0 12.0 0.00 0.00 0.00 26 1022.7
20260903202738 78 348 5.0 17.0 0.00 0.00 0.00 25 1022.6
20260903201254 79 23 5.0 13.0 0.00 0.00 0.00 25 1022.6
20260903200255 81 104 2.0 11.0 0.00 0.00 0.00 24 1022.7
20260903195255 81 27 2.0 5.0 0.00 0.00 0.00 22 1022.7
20260903194252 81 122 1.0 7.0 0.00 0.00 0.00 22 1022.9
20260903193250 80 155 2.0 5.0 0.00 0.00 0.00 23 1022.9
20260903192249 80 132 1.0 7.0 0.00 0.00 0.00 24 1023.0
20260903191249 78 338 2.0 6.0 0.00 0.00 0.00 24 1023.2
20260903190249 78 309 2.0 6.0 0.00 0.00 0.00 25 1023.4
20260903185242 79 135 1.0 7.0 0.00 0.00 0.00 24 1023.4
20260903184242 78 182 2.0 6.0 0.00 0.00 0.00 23 1023.5
20260903183226 78 52 2.0 12.0 0.00 0.00 0.00 24 1023.6
20260903182222 77 195 3.0 11.0 0.00 0.00 0.00 26 1023.9
20260903181221 76 68 2.0 9.0 0.00 0.00 0.00 27 1024.1
20260903180219 76 126 2.0 7.0 0.00 0.00 0.00 27 1024.1
20260903175219 76 32 4.0 9.0 0.00 0.00 0.00 28 1024.1
20260903174216 76 49 2.0 9.0 0.00 0.00 0.00 27 1024.2
20260903173215 76 106 2.0 7.0 0.00 0.00 0.00 27 1024.2
20260903172216 77 32 1.0 5.0 0.00 0.00 0.00 24 1024.4
20260903171214 77 205 1.0 3.0 0.00 0.00 0.00 23 1024.4
20260903170212 75 5 2.0 9.0 0.00 0.00 0.00 28 1024.2
20260903165654 75 238 1.0 4.0 0.00 0.00 0.00 27 1024.4
20260903164209 74 305 1.0 5.0 0.00 0.00 0.00 29 1024.4
20260903163207 74 36 1.0 6.0 0.00 0.00 0.00 28 1024.4
20260903162208 73 40 1.0 5.0 0.00 0.00 0.00 30 1024.4
20260903161207 72 60 1.0 4.0 0.00 0.00 0.00 31 1024.4
20260903160201 72 292 2.0 5.0 0.00 0.00 0.00 33 1024.4
20260903155158 72 318 1.0 4.0 0.00 0.00 0.00 31 1024.5
20260903154159 71 307 1.0 4.0 0.00 0.00 0.00 32 1024.4
20260903153159 70 91 1.0 8.0 0.00 0.00 0.00 36 1024.2
20260903152159 69 314 1.0 6.0 0.00 0.00 0.00 37 1024.5
20260903151157 70 316 0.0 2.0 0.00 0.00 0.00 37 1024.5
20260903150635 69 81 0.0 2.0 0.00 0.00 0.00 37 1024.6
20260903145154 68 132 0.0 1.0 0.00 0.00 0.00 40 1024.7
20260903144155 66 134 0.0 1.0 0.00 0.00 0.00 42 1024.9
20260903143150 64 328 1.0 3.0 0.00 0.00 0.00 43 1024.7
20260903142628 64 106 0.0 2.0 0.00 0.00 0.00 45 1024.9
20260903141153 63 18 0.0 1.0 0.00 0.00 0.00 47 1024.9
20260903140141 61 19 0.0 1.0 0.00 0.00 0.00 51 1024.7
20260903135140 60 101 0.0 3.0 0.00 0.00 0.00 49 1024.6
20260903134141 58 308 1.0 2.0 0.00 0.00 0.00 53 1024.5
20260903133140 56 312 0.0 3.0 0.00 0.00 0.00 59 1024.4
20260903133050 55 312 0.0 2.0 0.00 0.00 0.00 60 1024.4
20260903131140 53 313 0.0 2.0 0.00 0.00 0.00 59 1024.2
20260903130131 52 235 0.0 5.0 0.00 0.00 0.00 61 1024.2
20260903125131 51 318 1.0 4.0 0.00 0.00 0.00 61 1024.1
20260903124132 51 287 2.0 7.0 0.00 0.00 0.00 60 1023.9
20260903123132 50 210 2.0 6.0 0.00 0.00 0.00 65 1023.7
20260903122127 49 310 0.0 3.0 0.00 0.00 0.00 66 1023.7
20260903121127 49 316 1.0 4.0 0.00 0.00 0.00 66 1023.7
20260903120121 49 203 0.0 3.0 0.00 0.00 0.00 64 1023.6
20260903115121 50 242 0.0 2.0 0.00 0.00 0.00 64 1023.7
20260903115032 49 319 0.0 2.0 0.00 0.00 0.00 66 1023.6
20260903113116 49 328 0.0 0.0 0.00 0.00 0.00 66 1023.6
20260903112115 50 326 0.0 2.0 0.00 0.00 0.00 64 1023.6
20260903112031 50 240 1.0 3.0 0.00 0.00 0.00 63 1023.5